Time,TemperatureF,DewpointF,PressureIn,WindDirection,WindDirectionDegrees,WindSpeedMPH,WindSpeedGustMPH,Humidity,HourlyPrecipIn,Conditions,Clouds,dailyrainin,SoftwareType,DateUTC
2013-03-27 00:00:00,38.6,25.9,29.42,North,0,0.0,0.3,60,0.00,CLR,,0.00,WeatherDisplay:10.37,2013-03-27 04:00:00,
2013-03-27 00:05:00,38.5,25.8,29.42,North,357,0.0,0.0,60,0.00,CLR,,0.00,WeatherDisplay:10.37,2013-03-27 04:05:00,
2013-03-27 00:10:00,38.3,26.0,29.43,West,265,3.5,3.5,61,0.00,CLR,,0.00,WeatherDisplay:10.37,2013-03-27 04:10:00,
2013-03-27 00:15:00,38.3,26.0,29.43,WSW,251,3.5,3.5,61,0.00,CLR,,0.00,WeatherDisplay:10.37,2013-03-27 04:15:00,
2013-03-27 00:20:00,38.2,25.9,29.43,WNW,292,2.3,2.3,61,0.00,CLR,,0.00,WeatherDisplay:10.37,2013-03-27 04:20:00,
2013-03-27 00:25:00,38.2,25.9,29.43,NW,319,5.8,5.8,61,0.00,CLR,,0.00,WeatherDisplay:10.37,2013-03-27 04:25:00,
2013-03-27 00:30:00,38.0,26.1,29.43,WNW,289,3.5,3.5,62,0.00,CLR,,0.00,WeatherDisplay:10.37,2013-03-27 04:30:00,
2013-03-27 00:35:00,37.9,26.0,29.43,North,0,4.6,4.6,62,0.00,CLR,,0.00,WeatherDisplay:10.37,2013-03-27 04:35:00,
2013-03-27 00:40:00,37.8,25.9,29.43,NNW,336,1.1,1.1,62,0.00,CLR,,0.00,WeatherDisplay:10.37,2013-03-27 04:40:00,
2013-03-27 00:45:00,37.8,25.9,29.43,WSW,257,5.8,5.8,62,0.00,CLR,,0.00,WeatherDisplay:10.37,2013-03-27 04:45:00,
2013-03-27 00:50:00,37.6,25.7,29.43,WNW,299,3.5,3.8,62,0.00,CLR,,0.00,WeatherDisplay:10.37,2013-03-27 04:50:00,
2013-03-27 00:55:00,37.8,26.3,29.43,WNW,294,8.1,8.1,63,0.00,CLR,,0.00,WeatherDisplay:10.37,2013-03-27 04:55:00,
2013-03-27 01:00:00,37.8,26.3,29.43,North,350,4.6,0.0,63,0.00,CLR,,0.00,WeatherDisplay:10.37,2013-03-27 05:00:00,
2013-03-27 01:05:00,37.6,26.1,29.43,North,356,1.1,1.1,63,0.00,CLR,,0.00,WeatherDisplay:10.37,2013-03-27 05:05:00,
2013-03-27 01:10:00,37.6,26.1,29.43,NNW,333,4.6,4.6,63,0.00,CLR,,0.00,WeatherDisplay:10.37,2013-03-27 05:10:00,
2013-03-27 01:15:00,37.5,26.0,29.43,West,270,5.8,5.8,63,0.00,CLR,,0.00,WeatherDisplay:10.37,2013-03-27 05:15:00,
2013-03-27 01:20:00,37.5,26.0,29.43,North,3,4.6,4.6,63,0.00,CLR,,0.00,WeatherDisplay:10.37,2013-03-27 05:20:00,
2013-03-27 01:25:00,37.5,26.0,29.43,NNE,20,4.6,4.6,63,0.00,CLR,,0.00,WeatherDisplay:10.37,2013-03-27 05:25:00,
2013-03-27 01:30:00,37.5,26.0,29.43,North,0,6.9,6.9,63,0.00,CLR,,0.00,WeatherDisplay:10.37,2013-03-27 05:30:00,
2013-03-27 01:35:00,37.3,25.8,29.43,NW,312,1.1,0.0,63,0.00,CLR,,0.00,WeatherDisplay:10.37,2013-03-27 05:35:00,
2013-03-27 01:40:00,37.2,26.1,29.43,West,264,3.5,3.5,64,0.00,CLR,,0.00,WeatherDisplay:10.37,2013-03-27 05:40:00,
2013-03-27 01:45:00,37.2,26.1,29.43,NW,320,0.0,0.5,64,0.00,CLR,,0.00,WeatherDisplay:10.37,2013-03-27 05:45:00,
2013-03-27 01:50:00,37.2,26.1,29.43,North,357,5.8,5.8,64,0.00,CLR,,0.00,WeatherDisplay:10.37,2013-03-27 05:50:00,
2013-03-27 01:56:00,37.0,25.9,29.43,NW,305,2.0,0.0,64,0.00,CLR,,0.00,WeatherDisplay:10.37,2013-03-27 05:56:00,
2013-03-27 02:01:00,37.0,25.9,29.43,NW,322,1.1,0.0,64,0.00,CLR,,0.00,WeatherDisplay:10.37,2013-03-27 06:01:00,
2013-03-27 02:06:00,36.9,25.9,29.43,North,353,3.5,3.5,64,0.00,CLR,,0.00,WeatherDisplay:10.37,2013-03-27 06:06:00,
2013-03-27 02:11:00,36.8,26.1,29.43,North,359,2.0,2.0,65,0.00,CLR,,0.00,WeatherDisplay:10.37,2013-03-27 06:11:00,
2013-03-27 02:16:00,36.8,25.8,29.43,NW,306,0.0,0.0,64,0.00,CLR,,0.00,WeatherDisplay:10.37,2013-03-27 06:16:00,
2013-03-27 02:21:00,36.8,25.8,29.43,West,264,6.9,6.9,64,0.00,CLR,,0.00,WeatherDisplay:10.37,2013-03-27 06:21:00,
2013-03-27 02:26:00,36.8,25.8,29.43,West,281,1.0,1.0,64,0.00,CLR,,0.00,WeatherDisplay:10.37,2013-03-27 06:26:00,
2013-03-27 02:31:00,36.6,25.6,29.43,North,352,3.5,3.5,64,0.00,CLR,,0.00,WeatherDisplay:10.37,2013-03-27 06:31:00,
2013-03-27 02:36:00,36.6,25.9,29.43,WSW,254,4.6,4.6,65,0.00,CLR,,0.00,WeatherDisplay:10.37,2013-03-27 06:36:00,
2013-03-27 02:41:00,36.5,25.8,29.43,WSW,256,4.6,4.6,65,0.00,CLR,,0.00,WeatherDisplay:10.37,2013-03-27 06:41:00,
2013-03-27 02:46:00,36.3,25.7,29.43,West,265,1.1,1.1,65,0.00,CLR,,0.00,WeatherDisplay:10.37,2013-03-27 06:46:00,
2013-03-27 02:52:00,36.2,25.6,29.43,WSW,237,1.1,1.1,65,0.00,CLR,,0.00,WeatherDisplay:10.37,2013-03-27 06:52:00,
2013-03-27 02:57:00,36.0,25.4,29.43,NW,315,3.5,3.5,65,0.00,CLR,,0.00,WeatherDisplay:10.37,2013-03-27 06:57:00,
2013-03-27 03:02:00,36.0,25.4,29.43,WSW,257,2.3,0.0,65,0.00,CLR,,0.00,WeatherDisplay:10.37,2013-03-27 07:02:00,
2013-03-27 03:07:00,35.9,25.6,29.43,WNW,282,3.0,3.0,66,0.00,CLR,,0.00,WeatherDisplay:10.37,2013-03-27 07:07:00,
2013-03-27 03:12:00,35.8,25.5,29.43,NW,319,2.3,0.0,66,0.00,CLR,,0.00,WeatherDisplay:10.37,2013-03-27 07:12:00,
2013-03-27 03:17:00,35.6,25.7,29.43,WNW,284,3.5,3.5,67,0.00,CLR,,0.00,WeatherDisplay:10.37,2013-03-27 07:17:00,
2013-03-27 03:22:00,35.5,25.6,29.43,NNW,333,2.3,2.3,67,0.00,CLR,,0.00,WeatherDisplay:10.37,2013-03-27 07:22:00,
2013-03-27 03:27:00,35.5,25.6,29.43,WNW,298,4.6,4.6,67,0.00,CLR,,0.00,WeatherDisplay:10.37,2013-03-27 07:27:00,
2013-03-27 03:32:00,35.5,25.6,29.43,NNW,337,0.0,0.0,67,0.00,CLR,,0.00,WeatherDisplay:10.37,2013-03-27 07:32:00,
2013-03-27 03:37:00,35.3,25.4,29.43,NW,309,2.3,2.3,67,0.00,CLR,,0.00,WeatherDisplay:10.37,2013-03-27 07:37:00,
2013-03-27 03:42:00,35.2,25.3,29.43,North,354,0.0,3.0,67,0.00,CLR,,0.00,WeatherDisplay:10.37,2013-03-27 07:42:00,
2013-03-27 03:47:00,35.3,25.4,29.43,North,350,3.5,3.5,67,0.00,CLR,,0.00,WeatherDisplay:10.37,2013-03-27 07:47:00,
2013-03-27 03:52:00,35.5,25.6,29.43,WNW,302,0.0,0.9,67,0.00,CLR,,0.00,WeatherDisplay:10.37,2013-03-27 07:52:00,
2013-03-27 03:57:00,35.3,25.4,29.43,NNW,337,0.0,1.0,67,0.00,CLR,,0.00,WeatherDisplay:10.37,2013-03-27 07:57:00,
2013-03-27 04:02:00,35.2,25.3,29.43,North,6,1.1,1.1,67,0.00,CLR,,0.00,WeatherDisplay:10.37,2013-03-27 08:02:00,
2013-03-27 04:07:00,35.0,25.1,29.43,North,3,0.0,0.0,67,0.00,CLR,,0.00,WeatherDisplay:10.37,2013-03-27 08:07:00,
2013-03-27 04:12:00,35.0,25.1,29.43,NW,326,1.1,0.0,67,0.00,CLR,,0.00,WeatherDisplay:10.37,2013-03-27 08:12:00,
2013-03-27 04:17:00,35.0,25.1,29.43,WNW,295,0.0,0.0,67,0.00,CLR,,0.00,WeatherDisplay:10.37,2013-03-27 08:17:00,
2013-03-27 04:22:00,35.0,25.1,29.43,West,261,2.0,2.0,67,0.00,CLR,,0.00,WeatherDisplay:10.37,2013-03-27 08:22:00,
2013-03-27 04:27:00,34.9,25.0,29.43,WSW,248,0.0,0.0,67,0.00,CLR,,0.00,WeatherDisplay:10.37,2013-03-27 08:27:00,
2013-03-27 04:32:00,34.9,25.0,29.43,WSW,248,0.0,0.0,67,0.00,CLR,,0.00,WeatherDisplay:10.37,2013-03-27 08:32:00,
2013-03-27 04:37:00,34.7,24.9,29.43,WSW,248,0.0,0.0,67,0.00,CLR,,0.00,WeatherDisplay:10.37,2013-03-27 08:37:00,
2013-03-27 04:42:00,34.7,24.9,29.43,WSW,248,0.0,0.0,67,0.00,CLR,,0.00,WeatherDisplay:10.37,2013-03-27 08:42:00,
2013-03-27 04:47:00,34.6,25.1,29.43,WSW,248,3.5,3.5,68,0.00,CLR,,0.00,WeatherDisplay:10.37,2013-03-27 08:47:00,
2013-03-27 04:52:00,34.6,25.1,29.43,West,272,2.3,2.3,68,0.00,CLR,,0.00,WeatherDisplay:10.37,2013-03-27 08:52:00,
2013-03-27 04:57:00,34.4,25.3,29.43,WNW,282,0.0,0.1,69,0.00,CLR,,0.00,WeatherDisplay:10.37,2013-03-27 08:57:00,
2013-03-27 05:02:00,34.3,25.2,29.43,WNW,302,0.0,0.8,69,0.00,CLR,,0.00,WeatherDisplay:10.37,2013-03-27 09:02:00,
2013-03-27 05:07:00,34.1,25.0,29.43,West,277,2.3,2.3,69,0.00,CLR,,0.00,WeatherDisplay:10.37,2013-03-27 09:07:00,
2013-03-27 05:12:00,34.1,25.0,29.44,North,352,0.0,0.0,69,0.00,CLR,,0.00,WeatherDisplay:10.37,2013-03-27 09:12:00,
2013-03-27 05:17:00,34.1,25.3,29.44,North,352,1.1,1.1,70,0.00,CLR,,0.00,WeatherDisplay:10.37,2013-03-27 09:17:00,
2013-03-27 05:22:00,34.0,25.2,29.44,West,270,0.0,0.0,70,0.00,CLR,,0.00,WeatherDisplay:10.37,2013-03-27 09:22:00,
2013-03-27 05:27:00,33.8,25.0,29.44,NNW,330,0.0,0.3,70,0.00,CLR,,0.00,WeatherDisplay:10.37,2013-03-27 09:27:00,
2013-03-27 05:32:00,33.8,25.0,29.44,NW,312,0.0,0.0,70,0.00,CLR,,0.00,WeatherDisplay:10.37,2013-03-27 09:32:00,
2013-03-27 05:37:00,33.8,25.0,29.44,NNW,329,0.0,0.0,70,0.00,CLR,,0.00,WeatherDisplay:10.37,2013-03-27 09:37:00,
2013-03-27 05:42:00,33.7,25.0,29.45,NW,305,1.1,0.0,70,0.00,CLR,,0.00,WeatherDisplay:10.37,2013-03-27 09:42:00,
2013-03-27 05:47:00,33.7,25.0,29.45,West,275,3.5,3.5,70,0.00,CLR,,0.00,WeatherDisplay:10.37,2013-03-27 09:47:00,
2013-03-27 05:52:00,33.7,25.0,29.45,West,275,2.3,2.3,70,0.00,CLR,,0.00,WeatherDisplay:10.37,2013-03-27 09:52:00,
2013-03-27 05:57:00,33.5,25.1,29.45,WNW,289,0.0,0.0,71,0.00,CLR,,0.00,WeatherDisplay:10.37,2013-03-27 09:57:00,
2013-03-27 06:02:00,33.5,25.1,29.45,WNW,284,0.0,0.0,71,0.00,CLR,,0.00,WeatherDisplay:10.37,2013-03-27 10:02:00,
2013-03-27 06:07:00,33.4,25.0,29.45,West,271,0.0,0.0,71,0.00,CLR,,0.00,WeatherDisplay:10.37,2013-03-27 10:07:00,
2013-03-27 06:12:00,33.1,25.1,29.46,West,271,0.0,0.0,72,0.00,CLR,,0.00,WeatherDisplay:10.37,2013-03-27 10:12:00,
2013-03-27 06:17:00,32.9,24.9,29.46,West,260,1.1,1.1,72,0.00,CLR,,0.00,WeatherDisplay:10.37,2013-03-27 10:17:00,
2013-03-27 06:22:00,32.9,25.2,29.46,West,260,0.0,0.0,73,0.00,CLR,,0.00,WeatherDisplay:10.37,2013-03-27 10:22:00,
2013-03-27 06:27:00,32.8,25.1,29.46,WSW,254,0.0,0.0,73,0.00,CLR,,0.00,WeatherDisplay:10.37,2013-03-27 10:27:00,
2013-03-27 06:32:00,32.8,25.1,29.46,WSW,254,0.0,0.1,73,0.00,CLR,,0.00,WeatherDisplay:10.37,2013-03-27 10:32:00,
2013-03-27 06:37:00,32.7,25.0,29.46,WNW,302,0.0,0.0,73,0.00,CLR,,0.00,WeatherDisplay:10.37,2013-03-27 10:37:00,
2013-03-27 06:42:00,32.7,25.0,29.46,West,260,0.0,0.0,73,0.00,CLR,,0.00,WeatherDisplay:10.37,2013-03-27 10:42:00,
2013-03-27 06:47:00,32.7,25.3,29.46,West,267,0.0,0.0,74,0.00,CLR,,0.00,WeatherDisplay:10.37,2013-03-27 10:47:00,
2013-03-27 06:52:00,32.5,25.1,29.46,WSW,246,3.0,3.0,74,0.00,CLR,,0.00,WeatherDisplay:10.37,2013-03-27 10:52:00,
2013-03-27 06:58:00,32.5,25.1,29.47,WSW,246,0.0,0.0,74,0.00,CLR,,0.00,WeatherDisplay:10.37,2013-03-27 10:58:00,
2013-03-27 07:03:00,32.4,25.0,29.47,NW,318,3.5,3.5,74,0.00,CLR,,0.00,WeatherDisplay:10.37,2013-03-27 11:03:00,
2013-03-27 07:08:00,32.4,25.0,29.47,NW,322,2.3,2.3,74,0.00,CLR,,0.00,WeatherDisplay:10.37,2013-03-27 11:08:00,
2013-03-27 07:13:00,32.4,25.4,29.48,WNW,299,0.0,0.0,75,0.00,CLR,,0.00,WeatherDisplay:10.37,2013-03-27 11:13:00,
2013-03-27 07:18:00,32.2,25.2,29.48,WNW,299,0.0,0.0,75,0.00,CLR,,0.00,WeatherDisplay:10.37,2013-03-27 11:18:00,
2013-03-27 07:23:00,32.1,25.4,29.48,WSW,254,2.3,2.3,76,0.00,CLR,,0.00,WeatherDisplay:10.37,2013-03-27 11:23:00,
2013-03-27 07:28:00,32.1,25.4,29.48,NNW,342,2.3,2.3,76,0.00,CLR,,0.00,WeatherDisplay:10.37,2013-03-27 11:28:00,
2013-03-27 07:33:00,32.2,25.2,29.48,NW,304,2.3,0.0,75,0.00,CLR,,0.00,WeatherDisplay:10.37,2013-03-27 11:33:00,
2013-03-27 07:38:00,32.4,25.4,29.48,NW,313,3.5,3.5,75,0.00,CLR,,0.00,WeatherDisplay:10.37,2013-03-27 11:38:00,
2013-03-27 07:43:00,32.7,25.6,29.49,NW,308,1.1,0.0,75,0.00,CLR,,0.00,WeatherDisplay:10.37,2013-03-27 11:43:00,
2013-03-27 07:48:00,32.8,25.4,29.49,WNW,288,3.5,3.5,74,0.00,CLR,,0.00,WeatherDisplay:10.37,2013-03-27 11:48:00,
2013-03-27 07:53:00,32.9,25.5,29.49,WSW,251,3.5,0.0,74,0.00,CLR,,0.00,WeatherDisplay:10.37,2013-03-27 11:53:00,
2013-03-27 07:58:00,33.1,25.4,29.49,WNW,292,1.1,0.0,73,0.00,CLR,,0.00,WeatherDisplay:10.37,2013-03-27 11:58:00,
2013-03-27 08:03:00,33.4,25.7,29.49,NW,319,5.8,5.8,73,0.00,CLR,,0.00,WeatherDisplay:10.37,2013-03-27 12:03:00,
2013-03-27 08:08:00,33.7,25.6,29.49,NW,308,5.8,5.8,72,0.00,CLR,,0.00,WeatherDisplay:10.37,2013-03-27 12:08:00,
2013-03-27 08:13:00,34.0,25.6,29.50,WNW,291,3.5,3.5,71,0.00,CLR,,0.00,WeatherDisplay:10.37,2013-03-27 12:13:00,
2013-03-27 08:18:00,34.1,25.3,29.50,NW,308,1.1,0.0,70,0.00,CLR,,0.00,WeatherDisplay:10.37,2013-03-27 12:18:00,
2013-03-27 08:23:00,34.4,25.6,29.50,West,274,3.5,3.5,70,0.00,CLR,,0.00,WeatherDisplay:10.37,2013-03-27 12:23:00,
2013-03-27 08:28:00,34.9,25.8,29.50,WSW,246,2.3,2.3,69,0.00,CLR,,0.00,WeatherDisplay:10.37,2013-03-27 12:28:00,
2013-03-27 08:33:00,35.3,25.4,29.50,WSW,237,5.8,5.8,67,0.00,CLR,,0.00,WeatherDisplay:10.37,2013-03-27 12:33:00,
2013-03-27 08:38:00,35.6,25.4,29.50,WSW,253,5.8,5.8,66,0.00,CLR,,0.00,WeatherDisplay:10.37,2013-03-27 12:38:00,
2013-03-27 08:43:00,35.9,25.6,29.50,West,274,6.9,6.9,66,0.00,CLR,,0.00,WeatherDisplay:10.37,2013-03-27 12:43:00,
2013-03-27 08:48:00,36.5,26.2,29.50,WSW,254,5.8,5.8,66,0.00,CLR,,0.00,WeatherDisplay:10.37,2013-03-27 12:48:00,
2013-03-27 08:53:00,36.9,25.9,29.50,WSW,246,9.2,9.2,64,0.00,CLR,,0.00,WeatherDisplay:10.37,2013-03-27 12:53:00,
2013-03-27 08:58:00,37.3,25.8,29.50,NW,315,3.5,0.0,63,0.00,CLR,,0.00,WeatherDisplay:10.37,2013-03-27 12:58:00,
2013-03-27 09:03:00,37.8,25.9,29.50,WSW,243,8.1,8.1,62,0.00,CLR,,0.00,WeatherDisplay:10.37,2013-03-27 13:03:00,
2013-03-27 09:08:00,38.2,25.5,29.50,NW,325,5.8,5.8,60,0.00,CLR,,0.00,WeatherDisplay:10.37,2013-03-27 13:08:00,
2013-03-27 09:13:00,38.8,26.1,29.50,North,357,10.4,10.4,60,0.00,CLR,,0.00,WeatherDisplay:10.37,2013-03-27 13:13:00,
2013-03-27 09:18:00,39.3,25.7,29.50,WNW,282,5.0,5.0,58,0.00,CLR,,0.00,WeatherDisplay:10.37,2013-03-27 13:18:00,
2013-03-27 09:23:00,39.6,26.0,29.50,WNW,292,3.5,3.5,58,0.00,CLR,,0.00,WeatherDisplay:10.37,2013-03-27 13:23:00,
2013-03-27 09:28:00,40.1,25.6,29.51,North,352,9.2,9.2,56,0.00,CLR,,0.00,WeatherDisplay:10.37,2013-03-27 13:28:00,
2013-03-27 09:33:00,40.3,25.0,29.51,NNW,347,10.4,10.4,54,0.00,CLR,,0.00,WeatherDisplay:10.37,2013-03-27 13:33:00,
2013-03-27 09:38:00,40.6,24.8,29.51,North,350,6.9,6.9,53,0.00,CLR,,0.00,WeatherDisplay:10.37,2013-03-27 13:38:00,
2013-03-27 09:43:00,41.1,25.3,29.50,WNW,302,6.9,6.9,53,0.00,CLR,,0.00,WeatherDisplay:10.37,2013-03-27 13:43:00,
2013-03-27 09:48:00,41.5,24.2,29.50,NNW,329,6.9,6.9,50,0.00,CLR,,0.00,WeatherDisplay:10.37,2013-03-27 13:48:00,
2013-03-27 09:53:00,41.8,23.5,29.50,North,8,12.7,12.7,48,0.00,CLR,,0.00,WeatherDisplay:10.37,2013-03-27 13:53:00,
2013-03-27 09:58:00,42.1,23.3,29.50,WNW,284,10.4,10.4,47,0.00,CLR,,0.00,WeatherDisplay:10.37,2013-03-27 13:58:00,
2013-03-27 10:03:00,42.3,22.4,29.50,WNW,296,6.9,6.9,45,0.00,CLR,,0.00,WeatherDisplay:10.37,2013-03-27 14:03:00,
2013-03-27 10:08:00,42.6,22.7,29.50,NNE,27,13.8,13.8,45,0.00,CLR,,0.00,WeatherDisplay:10.37,2013-03-27 14:08:00,
2013-03-27 10:13:00,42.6,22.7,29.50,NNW,335,10.4,10.4,45,0.00,CLR,,0.00,WeatherDisplay:10.37,2013-03-27 14:13:00,
2013-03-27 10:18:00,42.9,23.0,29.50,NNW,336,8.1,8.1,45,0.00,CLR,,0.00,WeatherDisplay:10.37,2013-03-27 14:18:00,
2013-03-27 10:23:00,43.3,22.8,29.50,North,10,13.8,13.8,44,0.00,CLR,,0.00,WeatherDisplay:10.37,2013-03-27 14:23:00,
2013-03-27 10:28:00,43.9,23.9,29.50,NNE,23,10.4,10.4,45,0.00,CLR,,0.00,WeatherDisplay:10.37,2013-03-27 14:28:00,
2013-03-27 10:33:00,43.6,22.5,29.50,North,0,11.5,11.5,43,0.00,CLR,,0.00,WeatherDisplay:10.37,2013-03-27 14:33:00,
2013-03-27 10:38:00,43.3,22.3,29.50,NNE,21,16.1,16.1,43,0.00,CLR,,0.00,WeatherDisplay:10.37,2013-03-27 14:38:00,
2013-03-27 10:43:00,43.5,22.5,29.50,North,349,13.8,13.8,43,0.00,CLR,,0.00,WeatherDisplay:10.37,2013-03-27 14:43:00,
2013-03-27 10:48:00,43.9,22.3,29.50,North,354,11.5,11.5,42,0.00,CLR,,0.00,WeatherDisplay:10.37,2013-03-27 14:48:00,
2013-03-27 10:53:00,44.3,22.1,29.50,North,8,12.7,12.7,41,0.00,CLR,,0.00,WeatherDisplay:10.37,2013-03-27 14:53:00,
2013-03-27 10:58:00,44.8,21.9,29.50,NNW,336,11.5,11.5,40,0.00,CLR,,0.00,WeatherDisplay:10.37,2013-03-27 14:58:00,
2013-03-27 11:03:00,44.8,22.5,29.50,NNW,335,10.4,10.4,41,0.00,CLR,,0.00,WeatherDisplay:10.37,2013-03-27 15:03:00,
2013-03-27 11:08:00,44.6,22.3,29.50,NE,54,6.9,6.9,41,0.00,CLR,,0.00,WeatherDisplay:10.37,2013-03-27 15:08:00,
2013-03-27 11:13:00,44.9,23.2,29.50,NNW,333,8.1,8.1,42,0.00,CLR,,0.00,WeatherDisplay:10.37,2013-03-27 15:13:00,
2013-03-27 11:18:00,45.4,23.0,29.50,North,0,10.4,10.4,41,0.00,CLR,,0.00,WeatherDisplay:10.37,2013-03-27 15:18:00,
2013-03-27 11:23:00,45.4,23.0,29.50,North,0,11.5,11.5,41,0.00,CLR,,0.00,WeatherDisplay:10.37,2013-03-27 15:23:00,
2013-03-27 11:28:00,45.2,22.3,29.49,NNW,344,17.3,17.3,40,0.00,CLR,,0.00,WeatherDisplay:10.37,2013-03-27 15:28:00,
2013-03-27 11:33:00,45.4,22.5,29.49,North,359,12.0,12.0,40,0.00,CLR,,0.00,WeatherDisplay:10.37,2013-03-27 15:33:00,
2013-03-27 11:38:00,45.7,22.7,29.49,North,354,16.1,16.1,40,0.00,CLR,,0.00,WeatherDisplay:10.37,2013-03-27 15:38:00,
2013-03-27 11:43:00,46.0,24.7,29.50,NW,326,6.9,6.9,43,0.00,CLR,,0.00,WeatherDisplay:10.37,2013-03-27 15:43:00,
2013-03-27 11:48:00,46.0,23.6,29.50,NNE,27,13.8,13.8,41,0.00,CLR,,0.00,WeatherDisplay:10.37,2013-03-27 15:48:00,
2013-03-27 11:53:00,46.2,22.0,29.50,North,359,11.5,11.5,38,0.00,CLR,,0.00,WeatherDisplay:10.37,2013-03-27 15:53:00,
2013-03-27 11:58:00,46.1,23.1,29.50,NNW,329,11.5,11.5,40,0.00,CLR,,0.00,WeatherDisplay:10.37,2013-03-27 15:58:00,
2013-03-27 12:03:00,46.7,22.4,29.50,North,359,12.7,12.7,38,0.00,CLR,,0.00,WeatherDisplay:10.37,2013-03-27 16:03:00,
2013-03-27 12:08:00,46.7,23.0,29.50,NNW,336,13.8,13.8,39,0.00,CLR,,0.00,WeatherDisplay:10.37,2013-03-27 16:08:00,
2013-03-27 12:13:00,46.7,21.8,29.49,NE,40,11.5,11.5,37,0.00,CLR,,0.00,WeatherDisplay:10.37,2013-03-27 16:13:00,
2013-03-27 12:18:00,46.7,23.0,29.49,NNW,330,13.8,13.8,39,0.00,CLR,,0.00,WeatherDisplay:10.37,2013-03-27 16:18:00,
2013-03-27 12:23:00,46.0,22.4,29.49,North,0,11.5,11.5,39,0.00,CLR,,0.00,WeatherDisplay:10.37,2013-03-27 16:23:00,
2013-03-27 12:28:00,46.5,22.2,29.49,NE,38,11.5,11.5,38,0.00,CLR,,0.00,WeatherDisplay:10.37,2013-03-27 16:28:00,
2013-03-27 12:33:00,47.0,22.7,29.49,North,1,10.4,10.4,38,0.00,CLR,,0.00,WeatherDisplay:10.37,2013-03-27 16:33:00,
2013-03-27 12:38:00,47.6,21.9,29.49,North,1,11.5,11.5,36,0.00,CLR,,0.00,WeatherDisplay:10.37,2013-03-27 16:38:00,
2013-03-27 12:43:00,46.7,21.8,29.49,ENE,65,11.5,11.5,37,0.00,CLR,,0.00,WeatherDisplay:10.37,2013-03-27 16:43:00,
2013-03-27 12:48:00,46.8,22.5,29.49,SW,224,9.2,9.2,38,0.00,CLR,,0.00,WeatherDisplay:10.37,2013-03-27 16:48:00,
2013-03-27 12:53:00,47.3,21.7,29.49,North,353,8.1,8.1,36,0.00,CLR,,0.00,WeatherDisplay:10.37,2013-03-27 16:53:00,
2013-03-27 12:58:00,47.3,21.7,29.48,North,356,11.0,11.0,36,0.00,CLR,,0.00,WeatherDisplay:10.37,2013-03-27 16:58:00,
2013-03-27 13:03:00,47.9,21.5,29.48,NNW,343,15.0,15.0,35,0.00,CLR,,0.00,WeatherDisplay:10.37,2013-03-27 17:03:00,
2013-03-27 13:08:00,48.2,21.8,29.48,North,0,19.6,19.6,35,0.00,CLR,,0.00,WeatherDisplay:10.37,2013-03-27 17:08:00,
2013-03-27 13:13:00,48.5,21.4,29.48,WNW,289,12.7,12.7,34,0.00,CLR,,0.00,WeatherDisplay:10.37,2013-03-27 17:13:00,
2013-03-27 13:18:00,48.9,22.4,29.48,North,3,11.5,11.5,35,0.00,CLR,,0.00,WeatherDisplay:10.37,2013-03-27 17:18:00,
2013-03-27 13:23:00,49.1,21.9,29.48,NNW,344,12.0,12.0,34,0.00,CLR,,0.00,WeatherDisplay:10.37,2013-03-27 17:23:00,
2013-03-27 13:28:00,49.1,20.5,29.48,North,0,15.0,15.0,32,0.00,CLR,,0.00,WeatherDisplay:10.37,2013-03-27 17:28:00,
2013-03-27 13:33:00,48.2,21.1,29.48,North,0,9.2,9.2,34,0.00,CLR,,0.00,WeatherDisplay:10.37,2013-03-27 17:33:00,
2013-03-27 13:38:00,48.0,21.6,29.48,NNW,330,6.9,6.9,35,0.00,CLR,,0.00,WeatherDisplay:10.37,2013-03-27 17:38:00,
2013-03-27 13:43:00,48.5,22.7,29.48,NNW,337,5.8,8.8,36,0.00,CLR,,0.00,WeatherDisplay:10.37,2013-03-27 17:43:00,
2013-03-27 13:48:00,47.9,21.5,29.48,NW,319,10.4,10.4,35,0.00,CLR,,0.00,WeatherDisplay:10.37,2013-03-27 17:48:00,
2013-03-27 13:53:00,48.6,21.5,29.48,NW,322,12.7,12.7,34,0.00,CLR,,0.00,WeatherDisplay:10.37,2013-03-27 17:53:00,
2013-03-27 13:58:00,48.3,21.2,29.48,North,0,12.7,12.7,34,0.00,CLR,,0.00,WeatherDisplay:10.37,2013-03-27 17:58:00,
2013-03-27 14:03:00,47.7,20.0,29.48,NNW,346,12.7,12.7,33,0.00,CLR,,0.00,WeatherDisplay:10.37,2013-03-27 18:03:00,
2013-03-27 14:08:00,47.6,22.6,29.48,East,99,7.0,7.0,37,0.00,CLR,,0.00,WeatherDisplay:10.37,2013-03-27 18:08:00,
2013-03-27 14:13:00,47.7,21.3,29.47,NE,37,11.5,11.5,35,0.00,CLR,,0.00,WeatherDisplay:10.37,2013-03-27 18:13:00,
2013-03-27 14:18:00,48.6,20.8,29.47,NNE,27,13.8,13.8,33,0.00,CLR,,0.00,WeatherDisplay:10.37,2013-03-27 18:18:00,
2013-03-27 14:23:00,49.5,21.5,29.47,NNE,17,13.8,13.8,33,0.00,CLR,,0.00,WeatherDisplay:10.37,2013-03-27 18:23:00,
2013-03-27 14:28:00,49.6,20.2,29.47,WSW,256,10.4,10.4,31,0.00,CLR,,0.00,WeatherDisplay:10.37,2013-03-27 18:28:00,
2013-03-27 14:33:00,49.1,20.5,29.47,North,354,10.4,10.4,32,0.00,CLR,,0.00,WeatherDisplay:10.37,2013-03-27 18:33:00,
2013-03-27 14:38:00,48.5,20.7,29.47,WNW,295,6.9,6.9,33,0.00,CLR,,0.00,WeatherDisplay:10.37,2013-03-27 18:38:00,
2013-03-27 14:43:00,48.0,20.2,29.47,NNE,14,12.7,12.7,33,0.00,CLR,,0.00,WeatherDisplay:10.37,2013-03-27 18:43:00,
2013-03-27 14:48:00,48.8,21.6,29.47,WNW,292,11.5,11.5,34,0.00,CLR,,0.00,WeatherDisplay:10.37,2013-03-27 18:48:00,
2013-03-27 14:53:00,49.4,22.9,29.47,NNW,344,18.4,18.4,35,0.00,CLR,,0.00,WeatherDisplay:10.37,2013-03-27 18:53:00,
2013-03-27 14:58:00,50.2,21.4,29.46,WNW,282,10.4,10.4,32,0.00,CLR,,0.00,WeatherDisplay:10.37,2013-03-27 18:58:00,
2013-03-27 15:03:00,50.2,21.4,29.46,West,280,9.2,9.2,32,0.00,CLR,,0.00,WeatherDisplay:10.37,2013-03-27 19:03:00,
2013-03-27 15:08:00,49.8,21.1,29.46,West,280,11.5,11.5,32,0.00,CLR,,0.00,WeatherDisplay:10.37,2013-03-27 19:08:00,
2013-03-27 15:13:00,50.2,19.9,29.46,North,0,11.5,11.5,30,0.00,CLR,,0.00,WeatherDisplay:10.37,2013-03-27 19:13:00,
2013-03-27 15:18:00,50.1,21.3,29.46,NW,311,13.8,13.8,32,0.00,CLR,,0.00,WeatherDisplay:10.37,2013-03-27 19:18:00,
2013-03-27 15:23:00,49.9,20.4,29.46,North,0,8.1,8.1,31,0.00,CLR,,0.00,WeatherDisplay:10.37,2013-03-27 19:23:00,
2013-03-27 15:28:00,49.6,19.4,29.46,North,4,9.2,9.2,30,0.00,CLR,,0.00,WeatherDisplay:10.37,2013-03-27 19:28:00,
2013-03-27 15:33:00,49.4,20.0,29.46,North,10,17.3,17.3,31,0.00,CLR,,0.00,WeatherDisplay:10.37,2013-03-27 19:33:00,
2013-03-27 15:38:00,49.9,20.4,29.46,NNW,336,8.1,8.1,31,0.00,CLR,,0.00,WeatherDisplay:10.37,2013-03-27 19:38:00,
2013-03-27 15:43:00,50.5,20.2,29.46,NNW,329,8.1,8.1,30,0.00,CLR,,0.00,WeatherDisplay:10.37,2013-03-27 19:43:00,
2013-03-27 15:48:00,50.8,21.2,29.46,North,7,17.3,17.3,31,0.00,CLR,,0.00,WeatherDisplay:10.37,2013-03-27 19:48:00,
2013-03-27 15:54:00,50.4,19.3,29.46,NW,316,11.5,11.5,29,0.00,CLR,,0.00,WeatherDisplay:10.37,2013-03-27 19:54:00,
2013-03-27 15:59:00,49.8,19.6,29.46,North,354,10.4,10.4,30,0.00,CLR,,0.00,WeatherDisplay:10.37,2013-03-27 19:59:00,
2013-03-27 16:04:00,49.4,19.2,29.46,NE,51,12.7,12.7,30,0.00,CLR,,0.00,WeatherDisplay:10.37,2013-03-27 20:04:00,
2013-03-27 16:09:00,48.9,18.8,29.46,North,353,19.6,19.6,30,0.00,CLR,,0.00,WeatherDisplay:10.37,2013-03-27 20:09:00,
2013-03-27 16:14:00,48.8,19.5,29.46,WNW,287,10.4,10.4,31,0.00,CLR,,0.00,WeatherDisplay:10.37,2013-03-27 20:14:00,
2013-03-27 16:19:00,48.9,18.0,29.46,NNW,347,11.5,11.5,29,0.00,CLR,,0.00,WeatherDisplay:10.37,2013-03-27 20:19:00,
2013-03-27 16:24:00,49.2,18.3,29.46,NNE,24,10.4,10.4,29,0.00,CLR,,0.00,WeatherDisplay:10.37,2013-03-27 20:24:00,
2013-03-27 16:29:00,49.8,18.8,29.46,North,1,8.1,8.1,29,0.00,CLR,,0.00,WeatherDisplay:10.37,2013-03-27 20:29:00,
2013-03-27 16:34:00,49.6,18.6,29.46,WSW,240,11.5,11.5,29,0.00,CLR,,0.00,WeatherDisplay:10.37,2013-03-27 20:34:00,
2013-03-27 16:39:00,49.9,20.4,29.46,SW,232,8.1,8.1,31,0.00,CLR,,0.00,WeatherDisplay:10.37,2013-03-27 20:39:00,
2013-03-27 16:44:00,49.9,18.9,29.46,NNW,335,16.1,16.1,29,0.00,CLR,,0.00,WeatherDisplay:10.37,2013-03-27 20:44:00,
2013-03-27 16:49:00,49.6,19.4,29.46,South,171,12.7,12.7,30,0.00,CLR,,0.00,WeatherDisplay:10.37,2013-03-27 20:49:00,
2013-03-27 16:54:00,49.4,18.4,29.46,North,10,5.8,5.8,29,0.00,CLR,,0.00,WeatherDisplay:10.37,2013-03-27 20:54:00,
2013-03-27 16:59:00,49.5,18.5,29.46,WSW,247,8.1,8.1,29,0.00,CLR,,0.00,WeatherDisplay:10.37,2013-03-27 20:59:00,
2013-03-27 17:04:00,49.9,19.7,29.46,North,0,10.4,10.4,30,0.00,CLR,,0.00,WeatherDisplay:10.37,2013-03-27 21:04:00,
2013-03-27 17:09:00,50.1,19.0,29.46,NNE,28,6.9,6.9,29,0.00,CLR,,0.00,WeatherDisplay:10.37,2013-03-27 21:09:00,
2013-03-27 17:14:00,49.9,17.2,29.46,North,356,18.4,18.4,27,0.00,CLR,,0.00,WeatherDisplay:10.37,2013-03-27 21:14:00,
2013-03-27 17:19:00,49.5,19.3,29.46,North,3,11.5,11.5,30,0.00,CLR,,0.00,WeatherDisplay:10.37,2013-03-27 21:19:00,
2013-03-27 17:24:00,49.8,18.0,29.46,North,357,8.1,8.1,28,0.00,CLR,,0.00,WeatherDisplay:10.37,2013-03-27 21:24:00,
2013-03-27 17:29:00,49.6,17.8,29.46,NNE,21,17.3,17.3,28,0.00,CLR,,0.00,WeatherDisplay:10.37,2013-03-27 21:29:00,
2013-03-27 17:34:00,48.9,18.8,29.46,North,0,13.8,13.8,30,0.00,CLR,,0.00,WeatherDisplay:10.37,2013-03-27 21:34:00,
2013-03-27 17:39:00,48.2,18.2,29.46,North,0,12.7,12.7,30,0.00,CLR,,0.00,WeatherDisplay:10.37,2013-03-27 21:39:00,
2013-03-27 17:44:00,48.3,19.0,29.47,North,7,3.5,3.5,31,0.00,CLR,,0.00,WeatherDisplay:10.37,2013-03-27 21:44:00,
2013-03-27 17:49:00,48.9,19.5,29.47,North,352,3.5,3.5,31,0.00,CLR,,0.00,WeatherDisplay:10.37,2013-03-27 21:49:00,
2013-03-27 17:54:00,49.1,19.0,29.47,North,357,6.9,6.9,30,0.00,CLR,,0.00,WeatherDisplay:10.37,2013-03-27 21:54:00,
2013-03-27 17:59:00,48.9,18.0,29.47,North,357,5.8,5.8,29,0.00,CLR,,0.00,WeatherDisplay:10.37,2013-03-27 21:59:00,
2013-03-27 18:04:00,48.9,18.8,29.47,North,349,13.8,13.8,30,0.00,CLR,,0.00,WeatherDisplay:10.37,2013-03-27 22:04:00,
2013-03-27 18:09:00,49.1,19.0,29.47,NNW,340,17.3,17.3,30,0.00,CLR,,0.00,WeatherDisplay:10.37,2013-03-27 22:09:00,
2013-03-27 18:14:00,48.9,18.8,29.47,NNE,20,11.5,11.5,30,0.00,CLR,,0.00,WeatherDisplay:10.37,2013-03-27 22:14:00,
2013-03-27 18:19:00,48.6,18.5,29.47,NW,325,16.1,16.1,30,0.00,CLR,,0.00,WeatherDisplay:10.37,2013-03-27 22:19:00,
2013-03-27 18:24:00,48.2,18.2,29.47,NW,311,11.5,11.5,30,0.00,CLR,,0.00,WeatherDisplay:10.37,2013-03-27 22:24:00,
2013-03-27 18:29:00,48.2,18.9,29.47,North,350,11.5,11.5,31,0.00,CLR,,0.00,WeatherDisplay:10.37,2013-03-27 22:29:00,
2013-03-27 18:34:00,47.7,18.5,29.47,NE,34,6.9,6.9,31,0.00,CLR,,0.00,WeatherDisplay:10.37,2013-03-27 22:34:00,
2013-03-27 18:39:00,47.6,18.4,29.47,WNW,301,10.4,10.4,31,0.00,CLR,,0.00,WeatherDisplay:10.37,2013-03-27 22:39:00,
2013-03-27 18:44:00,47.1,18.7,29.48,NNE,13,8.1,8.1,32,0.00,CLR,,0.00,WeatherDisplay:10.37,2013-03-27 22:44:00,
2013-03-27 18:49:00,46.8,18.5,29.48,WSW,250,10.4,10.4,32,0.00,CLR,,0.00,WeatherDisplay:10.37,2013-03-27 22:49:00,
2013-03-27 18:54:00,46.5,18.9,29.48,NNW,340,3.5,3.5,33,0.00,CLR,,0.00,WeatherDisplay:10.37,2013-03-27 22:54:00,
2013-03-27 18:59:00,46.4,18.8,29.48,NNW,342,11.0,11.0,33,0.00,CLR,,0.00,WeatherDisplay:10.37,2013-03-27 22:59:00,
2013-03-27 19:04:00,46.2,18.6,29.48,NNW,340,9.0,9.0,33,0.00,CLR,,0.00,WeatherDisplay:10.37,2013-03-27 23:04:00,
2013-03-27 19:09:00,46.1,19.2,29.48,NNW,333,4.6,4.6,34,0.00,CLR,,0.00,WeatherDisplay:10.37,2013-03-27 23:09:00,
2013-03-27 19:14:00,46.0,19.2,29.49,NNW,339,11.5,11.5,34,0.00,CLR,,0.00,WeatherDisplay:10.37,2013-03-27 23:14:00,
2013-03-27 19:19:00,45.8,19.7,29.49,North,359,6.9,6.9,35,0.00,CLR,,0.00,WeatherDisplay:10.37,2013-03-27 23:19:00,
2013-03-27 19:24:00,45.5,20.1,29.49,North,0,3.5,3.5,36,0.00,CLR,,0.00,WeatherDisplay:10.37,2013-03-27 23:24:00,
2013-03-27 19:29:00,45.2,19.1,29.50,NNW,332,6.9,6.9,35,0.00,CLR,,0.00,WeatherDisplay:10.37,2013-03-27 23:29:00,
2013-03-27 19:34:00,45.2,19.1,29.50,NNW,340,10.4,10.4,35,0.00,CLR,,0.00,WeatherDisplay:10.37,2013-03-27 23:34:00,
2013-03-27 19:39:00,44.9,20.2,29.50,North,356,4.6,4.6,37,0.00,CLR,,0.00,WeatherDisplay:10.37,2013-03-27 23:39:00,
2013-03-27 19:44:00,44.8,19.4,29.50,North,11,6.9,6.9,36,0.00,CLR,,0.00,WeatherDisplay:10.37,2013-03-27 23:44:00,
2013-03-27 19:49:00,44.5,19.8,29.50,NE,40,5.8,5.8,37,0.00,CLR,,0.00,WeatherDisplay:10.37,2013-03-27 23:49:00,
2013-03-27 19:54:00,44.3,20.3,29.50,North,356,4.6,4.6,38,0.00,CLR,,0.00,WeatherDisplay:10.37,2013-03-27 23:54:00,
2013-03-27 19:59:00,44.2,20.2,29.51,North,1,5.8,5.8,38,0.00,CLR,,0.00,WeatherDisplay:10.37,2013-03-27 23:59:00,
2013-03-27 20:04:00,43.9,20.5,29.51,NW,313,8.1,8.1,39,0.00,CLR,,0.00,WeatherDisplay:10.37,2013-03-28 00:04:00,
2013-03-27 20:09:00,43.8,20.4,29.51,NNE,21,4.6,4.6,39,0.00,CLR,,0.00,WeatherDisplay:10.37,2013-03-28 00:09:00,
2013-03-27 20:14:00,43.5,20.7,29.52,North,0,3.5,3.5,40,0.00,CLR,,0.00,WeatherDisplay:10.37,2013-03-28 00:14:00,
2013-03-27 20:19:00,43.3,20.6,29.52,North,0,5.8,5.8,40,0.00,CLR,,0.00,WeatherDisplay:10.37,2013-03-28 00:19:00,
2013-03-27 20:24:00,43.1,21.0,29.52,NNW,342,5.8,0.0,41,0.00,CLR,,0.00,WeatherDisplay:10.37,2013-03-28 00:24:00,
2013-03-27 20:29:00,42.8,20.7,29.52,NNW,340,3.5,3.5,41,0.00,CLR,,0.00,WeatherDisplay:10.37,2013-03-28 00:29:00,
2013-03-27 20:34:00,42.6,20.5,29.52,NW,326,5.8,5.8,41,0.00,CLR,,0.00,WeatherDisplay:10.37,2013-03-28 00:34:00,
2013-03-27 20:39:00,42.5,20.4,29.52,NNW,347,4.6,4.6,41,0.00,CLR,,0.00,WeatherDisplay:10.37,2013-03-28 00:39:00,
2013-03-27 20:44:00,42.5,20.4,29.53,NNE,20,5.8,5.8,41,0.00,CLR,,0.00,WeatherDisplay:10.37,2013-03-28 00:44:00,
2013-03-27 20:49:00,42.3,20.2,29.53,North,359,5.8,5.8,41,0.00,CLR,,0.00,WeatherDisplay:10.37,2013-03-28 00:49:00,
2013-03-27 20:54:00,42.3,20.2,29.53,NNW,330,4.6,4.6,41,0.00,CLR,,0.00,WeatherDisplay:10.37,2013-03-28 00:54:00,
2013-03-27 20:59:00,42.2,20.2,29.53,NW,316,2.3,2.3,41,0.00,CLR,,0.00,WeatherDisplay:10.37,2013-03-28 00:59:00,
2013-03-27 21:04:00,42.1,20.6,29.53,North,359,3.5,3.5,42,0.00,CLR,,0.00,WeatherDisplay:10.37,2013-03-28 01:04:00,
2013-03-27 21:09:00,41.8,20.4,29.53,North,7,2.3,2.3,42,0.00,CLR,,0.00,WeatherDisplay:10.37,2013-03-28 01:09:00,
2013-03-27 21:14:00,41.6,20.2,29.53,North,359,6.9,6.9,42,0.00,CLR,,0.00,WeatherDisplay:10.37,2013-03-28 01:14:00,
2013-03-27 21:19:00,41.5,20.6,29.53,North,357,3.5,3.5,43,0.00,CLR,,0.00,WeatherDisplay:10.37,2013-03-28 01:19:00,
2013-03-27 21:24:00,41.3,21.5,29.53,NNW,342,0.0,0.0,45,0.00,CLR,,0.00,WeatherDisplay:10.37,2013-03-28 01:24:00,
2013-03-27 21:29:00,41.1,21.3,29.53,NNW,342,0.0,0.0,45,0.00,CLR,,0.00,WeatherDisplay:10.37,2013-03-28 01:29:00,
2013-03-27 21:34:00,40.8,21.1,29.53,NNW,347,3.5,3.5,45,0.00,CLR,,0.00,WeatherDisplay:10.37,2013-03-28 01:34:00,
2013-03-27 21:39:00,40.5,20.8,29.53,NNW,347,0.0,0.0,45,0.00,CLR,,0.00,WeatherDisplay:10.37,2013-03-28 01:39:00,
2013-03-27 21:44:00,40.3,21.1,29.54,North,359,0.0,0.0,46,0.00,CLR,,0.00,WeatherDisplay:10.37,2013-03-28 01:44:00,
2013-03-27 21:49:00,40.1,21.0,29.54,North,359,1.1,0.0,46,0.00,CLR,,0.00,WeatherDisplay:10.37,2013-03-28 01:49:00,
2013-03-27 21:54:00,39.9,21.3,29.54,North,352,0.0,0.0,47,0.00,CLR,,0.00,WeatherDisplay:10.37,2013-03-28 01:54:00,
2013-03-27 21:59:00,39.6,21.0,29.54,North,352,0.0,0.0,47,0.00,CLR,,0.00,WeatherDisplay:10.37,2013-03-28 01:59:00,
2013-03-27 22:05:00,39.5,20.9,29.54,North,350,0.0,0.0,47,0.00,CLR,,0.00,WeatherDisplay:10.37,2013-03-28 02:05:00,
2013-03-27 22:10:00,39.2,21.1,29.54,North,350,0.0,0.0,48,0.00,CLR,,0.00,WeatherDisplay:10.37,2013-03-28 02:10:00,
2013-03-27 22:15:00,39.1,21.5,29.54,North,350,0.0,0.0,49,0.00,CLR,,0.00,WeatherDisplay:10.37,2013-03-28 02:15:00,
2013-03-27 22:20:00,38.8,21.7,29.54,North,350,0.0,0.0,50,0.00,CLR,,0.00,WeatherDisplay:10.37,2013-03-28 02:20:00,
2013-03-27 22:25:00,38.3,22.2,29.54,North,350,0.0,0.0,52,0.00,CLR,,0.00,WeatherDisplay:10.37,2013-03-28 02:25:00,
2013-03-27 22:30:00,38.0,22.4,29.53,North,352,0.0,0.0,53,0.00,CLR,,0.00,WeatherDisplay:10.37,2013-03-28 02:30:00,
2013-03-27 22:35:00,37.9,23.2,29.53,North,352,0.0,0.0,55,0.00,CLR,,0.00,WeatherDisplay:10.37,2013-03-28 02:35:00,
2013-03-27 22:40:00,37.6,23.3,29.53,North,352,0.0,0.0,56,0.00,CLR,,0.00,WeatherDisplay:10.37,2013-03-28 02:40:00,
2013-03-27 22:45:00,37.3,22.6,29.53,NNW,346,0.0,0.0,55,0.00,CLR,,0.00,WeatherDisplay:10.37,2013-03-28 02:45:00,
2013-03-27 22:50:00,37.5,22.3,29.53,NNW,347,1.1,1.1,54,0.00,CLR,,0.00,WeatherDisplay:10.37,2013-03-28 02:50:00,
2013-03-27 22:55:00,37.5,21.9,29.53,North,359,1.1,1.1,53,0.00,CLR,,0.00,WeatherDisplay:10.37,2013-03-28 02:55:00,
2013-03-27 23:00:00,37.5,21.9,29.53,North,352,0.0,0.0,53,0.00,CLR,,0.00,WeatherDisplay:10.37,2013-03-28 03:00:00,
2013-03-27 23:05:00,37.6,21.5,29.53,NNW,347,2.3,2.3,52,0.00,CLR,,0.00,WeatherDisplay:10.37,2013-03-28 03:05:00,
2013-03-27 23:10:00,37.6,22.0,29.53,WNW,288,0.0,0.3,53,0.00,CLR,,0.00,WeatherDisplay:10.37,2013-03-28 03:10:00,
2013-03-27 23:15:00,37.6,21.5,29.53,WNW,287,3.5,3.5,52,0.00,CLR,,0.00,WeatherDisplay:10.37,2013-03-28 03:15:00,
2013-03-27 23:20:00,37.6,22.0,29.53,North,357,3.5,3.5,53,0.00,CLR,,0.00,WeatherDisplay:10.37,2013-03-28 03:20:00,
2013-03-27 23:25:00,37.6,22.0,29.53,North,0,3.5,3.5,53,0.00,CLR,,0.00,WeatherDisplay:10.37,2013-03-28 03:25:00,
2013-03-27 23:30:00,37.8,22.6,29.54,North,0,2.3,2.3,54,0.00,CLR,,0.00,WeatherDisplay:10.37,2013-03-28 03:30:00,
2013-03-27 23:35:00,37.6,22.4,29.54,NNW,328,1.1,1.1,54,0.00,CLR,,0.00,WeatherDisplay:10.37,2013-03-28 03:35:00,
2013-03-27 23:40:00,37.6,22.4,29.54,NNE,17,0.0,0.0,54,0.00,CLR,,0.00,WeatherDisplay:10.37,2013-03-28 03:40:00,
2013-03-27 23:45:00,37.5,22.3,29.54,NNE,24,2.3,2.3,54,0.00,CLR,,0.00,WeatherDisplay:10.37,2013-03-28 03:45:00,
2013-03-27 23:50:00,37.6,22.4,29.54,WSW,256,0.0,0.0,54,0.00,CLR,,0.00,WeatherDisplay:10.37,2013-03-28 03:50:00,
2013-03-27 23:55:00,37.6,22.4,29.54,NNW,343,4.6,4.6,54,0.00,CLR,,0.00,WeatherDisplay:10.37,2013-03-28 03:55:00,